PLF102 EPWA-UTDD

Flight info

Callsign PLF102
Flight time 5h 13m
Altitude 40000
Route XIMBA N195 VENES M857 PODAN/N0481F410 DCT ROBTU DCT KENIN DCT KARIL DCT DINRO N743 UDROS UM859 KARDE UN644 ROLIN N644 LAGAS M747 SUBUT T923 ERLEV M11 RODAR A909 BABUM A477 AKRAM R226 MANAT/K0876F410 Z777 INDUD Q169 SOPNO SOPNO6W
Aircraft B788/H-SDE1E2E3FGHIJ2J3J4J5M1RWXY/LB1D1

Departure

Time 2026-04-14 06:30
Airport Warsaw Chopin Airport (EPWA)

Arrival

Time 2026-04-14 11:43
Airport Dushanbe International Airport (UTDD)
Time Latitude Longitude Altitude Speed Heading
2026-04-14 05:29 52.17438 20.97207 361 ft 0 kts 229°
2026-04-14 06:22 52.17427 20.97178 361 ft 7 kts 246°
2026-04-14 06:22 52.17432 20.97109 361 ft 3 kts 308°
2026-04-14 06:23 52.17465 20.97079 365 ft 10 kts 331°
2026-04-14 06:23 52.17528 20.97023 361 ft 10 kts 333°
2026-04-14 06:23 52.17586 20.96976 365 ft 9 kts 334°
2026-04-14 06:23 52.17624 20.96915 364 ft 7 kts 292°
2026-04-14 06:24 52.17626 20.96851 361 ft 5 kts 256°
2026-04-14 06:24 52.17603 20.96777 361 ft 14 kts 240°
2026-04-14 06:24 52.17553 20.96639 365 ft 14 kts 239°
2026-04-14 06:24 52.17497 20.96518 361 ft 13 kts 233°
2026-04-14 06:25 52.17455 20.96400 362 ft 12 kts 247°
2026-04-14 06:25 52.17461 20.96339 362 ft 3 kts 316°
2026-04-14 06:25 52.17522 20.96284 364 ft 17 kts 333°
2026-04-14 06:25 52.17580 20.96152 361 ft 13 kts 265°
2026-04-14 06:26 52.17531 20.96056 363 ft 10 kts 206°
2026-04-14 06:26 52.17471 20.96008 363 ft 9 kts 206°
2026-04-14 06:26 52.17409 20.95987 365 ft 8 kts 164°
2026-04-14 06:26 52.17385 20.96007 360 ft 0 kts 152°
2026-04-14 06:29 52.17266 20.96112 362 ft 62 kts 152°
2026-04-14 06:29 52.16611 20.96683 361 ft 148 kts 152°
2026-04-14 06:29 52.15527 20.97583 551 ft 201 kts 151°
2026-04-14 06:29 52.14105 20.98675 837 ft 251 kts 153°
2026-04-14 06:30 52.12456 20.99883 1661 ft 255 kts 153°
2026-04-14 06:30 52.10890 21.01094 2015 ft 246 kts 152°
2026-04-14 06:30 52.09346 21.01926 2650 ft 222 kts 166°
2026-04-14 06:30 52.07889 21.02330 4113 ft 204 kts 166°
2026-04-14 06:31 52.06556 21.02634 5727 ft 187 kts 172°
2026-04-14 06:31 52.05155 21.02862 6162 ft 220 kts 174°
2026-04-14 06:31 52.03426 21.03102 5814 ft 281 kts 173°
2026-04-14 06:31 52.01263 21.03490 5537 ft 334 kts 167°
2026-04-14 06:32 51.99116 21.04746 7154 ft 321 kts 156°
2026-04-14 06:32 51.97078 21.06353 8207 ft 334 kts 154°
2026-04-14 06:32 51.94915 21.08125 8521 ft 364 kts 153°
2026-04-14 06:32 51.92568 21.10063 8834 ft 388 kts 153°
2026-04-14 06:33 51.90220 21.12090 10406 ft 371 kts 152°
2026-04-14 06:33 51.88024 21.14031 12313 ft 348 kts 152°
2026-04-14 06:33 51.85969 21.15898 14059 ft 329 kts 152°
2026-04-14 06:34 51.82139 21.19472 16256 ft 321 kts 152°
2026-04-14 06:34 51.80165 21.21240 16898 ft 327 kts 160°
2026-04-14 06:34 51.77951 21.22104 17562 ft 329 kts 176°
2026-04-14 06:34 51.75663 21.22506 18344 ft 331 kts 178°
2026-04-14 06:35 51.73361 21.22858 19035 ft 334 kts 177°
2026-04-14 06:35 51.71069 21.23229 19672 ft 338 kts 177°
2026-04-14 06:35 51.68697 21.23651 20371 ft 338 kts 176°
2026-04-14 06:35 51.66407 21.24106 21234 ft 333 kts 175°
2026-04-14 06:36 51.64122 21.24607 22040 ft 331 kts 175°
2026-04-14 06:36 51.61823 21.25158 22512 ft 338 kts 174°
2026-04-14 06:36 51.59458 21.25795 22772 ft 352 kts 173°
2026-04-14 06:36 51.57016 21.26520 23140 ft 361 kts 172°
2026-04-14 06:37 51.54540 21.27321 23801 ft 360 kts 171°
2026-04-14 06:37 51.52106 21.28165 24513 ft 355 kts 170°
2026-04-14 06:37 51.49712 21.29051 25106 ft 354 kts 169°
2026-04-14 06:37 51.47292 21.29994 25428 ft 361 kts 168°
2026-04-14 06:38 51.44811 21.30998 25598 ft 373 kts 168°
2026-04-14 06:38 51.42268 21.32039 25866 ft 381 kts 169°
2026-04-14 06:38 51.39622 21.32599 25972 ft 390 kts 180°
2026-04-14 06:38 51.36870 21.32938 26075 ft 403 kts 176°
2026-04-14 06:39 51.34047 21.33513 26157 ft 415 kts 174°
2026-04-14 06:39 51.31149 21.34185 26246 ft 426 kts 173°
2026-04-14 06:39 51.28188 21.34885 26320 ft 436 kts 174°
2026-04-14 06:39 51.25145 21.35589 26398 ft 446 kts 174°
2026-04-14 06:40 51.22047 21.36283 26471 ft 455 kts 174°
2026-04-14 06:40 51.18879 21.36972 26550 ft 463 kts 174°
2026-04-14 06:40 51.15668 21.37657 26717 ft 468 kts 174°
2026-04-14 06:40 51.12428 21.38338 26980 ft 470 kts 174°
2026-04-14 06:41 51.09224 21.39007 27326 ft 471 kts 174°
2026-04-14 06:41 51.05969 21.39684 27586 ft 473 kts 174°
2026-04-14 06:41 51.02698 21.40361 27808 ft 475 kts 174°
2026-04-14 06:41 50.99415 21.41041 28129 ft 476 kts 174°
2026-04-14 06:42 50.96137 21.41721 28518 ft 474 kts 174°
2026-04-14 06:42 50.92872 21.42396 28898 ft 473 kts 174°
2026-04-14 06:42 50.89606 21.43071 29265 ft 473 kts 174°
2026-04-14 06:42 50.86348 21.43744 29626 ft 472 kts 174°
2026-04-14 06:43 50.83097 21.44414 29992 ft 471 kts 174°
2026-04-14 06:43 50.79846 21.45083 30315 ft 471 kts 174°
2026-04-14 06:43 50.76601 21.45749 30631 ft 469 kts 174°
2026-04-14 06:43 50.73373 21.46412 30964 ft 467 kts 174°
2026-04-14 06:44 50.70147 21.47072 31275 ft 466 kts 174°
2026-04-14 06:44 50.66934 21.47730 31582 ft 465 kts 174°
2026-04-14 06:44 50.63768 21.48377 31854 ft 464 kts 174°
2026-04-14 06:44 50.60565 21.49031 32144 ft 463 kts 174°
2026-04-14 06:45 50.57365 21.49682 32462 ft 462 kts 174°
2026-04-14 06:45 50.54184 21.50329 32773 ft 460 kts 174°
2026-04-14 06:45 50.51020 21.50972 33076 ft 458 kts 174°
2026-04-14 06:45 50.47856 21.51614 33363 ft 457 kts 174°
2026-04-14 06:46 50.41560 21.52889 33923 ft 455 kts 174°
2026-04-14 06:46 50.38428 21.53523 34200 ft 453 kts 174°
2026-04-14 06:46 50.35304 21.54153 34428 ft 453 kts 174°
2026-04-14 06:47 50.32179 21.54783 34606 ft 453 kts 174°
2026-04-14 06:47 50.29056 21.55411 34761 ft 453 kts 174°
2026-04-14 06:47 50.25922 21.56041 34964 ft 453 kts 174°
2026-04-14 06:47 50.22847 21.56658 35143 ft 451 kts 174°
2026-04-14 06:48 50.19728 21.57284 35159 ft 452 kts 174°
2026-04-14 06:48 50.13505 21.58530 35169 ft 450 kts 174°
2026-04-14 06:49 50.07293 21.59770 35169 ft 449 kts 174°
2026-04-14 06:49 50.02149 21.60793 35171 ft 448 kts 174°
2026-04-14 06:50 49.95973 21.62020 35173 ft 447 kts 174°
2026-04-14 06:50 49.89798 21.63243 35165 ft 447 kts 174°
2026-04-14 06:51 49.83638 21.64461 35165 ft 446 kts 174°
2026-04-14 06:51 49.77476 21.65675 35155 ft 447 kts 174°
2026-04-14 06:52 49.71302 21.66889 35158 ft 447 kts 174°
2026-04-14 06:52 49.65124 21.68100 35160 ft 448 kts 174°
2026-04-14 06:53 49.58930 21.69312 35154 ft 449 kts 174°
2026-04-14 06:53 49.52735 21.70521 35167 ft 449 kts 174°
2026-04-14 06:54 49.46556 21.71723 35150 ft 451 kts 174°
2026-04-14 06:54 49.40326 21.72932 35155 ft 451 kts 174°
2026-04-14 06:55 49.34095 21.74139 35153 ft 451 kts 174°
2026-04-14 06:55 49.27870 21.75341 35157 ft 451 kts 174°
2026-04-14 06:56 49.21639 21.76541 35164 ft 450 kts 174°
2026-04-14 06:56 49.15432 21.77733 35164 ft 449 kts 174°
2026-04-14 06:57 49.09230 21.78923 35160 ft 449 kts 174°
2026-04-14 06:57 49.03039 21.80106 35169 ft 448 kts 174°
2026-04-14 06:58 48.96898 21.81277 35162 ft 447 kts 174°
2026-04-14 06:58 48.90723 21.82452 35177 ft 446 kts 174°
2026-04-14 06:59 48.84561 21.83621 35164 ft 446 kts 174°
2026-04-14 06:59 48.78412 21.84785 35163 ft 445 kts 174°
2026-04-14 07:00 48.72269 21.85945 35169 ft 444 kts 173°
2026-04-14 07:00 48.66131 21.87101 35167 ft 444 kts 173°
2026-04-14 07:01 48.59996 21.88254 35176 ft 444 kts 173°
2026-04-14 07:01 48.53861 21.89404 35161 ft 444 kts 174°
2026-04-14 07:02 48.47718 21.90553 35164 ft 445 kts 174°
2026-04-14 07:02 48.41618 21.91691 35161 ft 445 kts 174°
2026-04-14 07:03 48.35568 21.93670 35171 ft 447 kts 160°
2026-04-14 07:03 48.30088 21.98075 35170 ft 448 kts 149°
2026-04-14 07:04 48.24792 22.03047 35165 ft 449 kts 149°
2026-04-14 07:04 48.19478 22.07981 35164 ft 449 kts 149°
2026-04-14 07:05 48.14140 22.12859 35152 ft 450 kts 149°
2026-04-14 07:05 48.08792 22.17714 35156 ft 450 kts 149°
2026-04-14 07:06 48.03440 22.22560 35147 ft 450 kts 149°
2026-04-14 07:06 47.98091 22.27394 35160 ft 449 kts 149°
2026-04-14 07:07 47.92738 22.32221 35156 ft 449 kts 149°
2026-04-14 07:07 47.87388 22.37034 35158 ft 449 kts 149°
2026-04-14 07:08 47.82037 22.41837 35156 ft 449 kts 149°
2026-04-14 07:08 47.77223 22.47723 35156 ft 450 kts 131°
2026-04-14 07:09 47.73184 22.54819 35156 ft 450 kts 130°
2026-04-14 07:09 47.69173 22.61957 35156 ft 450 kts 130°
2026-04-14 07:10 47.65132 22.69057 35160 ft 451 kts 131°
2026-04-14 07:10 47.61060 22.76134 35158 ft 451 kts 131°
2026-04-14 07:11 47.57001 22.83152 35158 ft 452 kts 131°
2026-04-14 07:11 47.52901 22.90221 35161 ft 452 kts 131°
2026-04-14 07:12 47.48796 22.97283 35160 ft 453 kts 131°
2026-04-14 07:12 47.44684 23.04337 35163 ft 453 kts 131°
2026-04-14 07:13 47.40565 23.11389 35173 ft 453 kts 131°
2026-04-14 07:13 47.36441 23.18429 35175 ft 454 kts 131°
2026-04-14 07:14 47.32308 23.25465 35180 ft 454 kts 131°
2026-04-14 07:14 47.28170 23.32492 35182 ft 454 kts 131°
2026-04-14 07:15 47.24027 23.39509 35186 ft 454 kts 131°
2026-04-14 07:15 47.19910 23.46464 35189 ft 454 kts 131°
2026-04-14 07:16 47.15756 23.53463 35187 ft 454 kts 131°
2026-04-14 07:16 47.11605 23.60441 35192 ft 453 kts 131°
2026-04-14 07:17 47.07451 23.67404 35198 ft 453 kts 131°
2026-04-14 07:17 47.03292 23.74359 35194 ft 453 kts 132°
2026-04-14 07:18 46.99130 23.81300 35194 ft 453 kts 132°
2026-04-14 07:18 46.94962 23.88233 35195 ft 453 kts 132°
2026-04-14 07:19 46.90787 23.95160 35194 ft 454 kts 132°
2026-04-14 07:19 46.86635 24.02032 35194 ft 454 kts 132°
2026-04-14 07:20 46.82445 24.08948 35204 ft 454 kts 132°
2026-04-14 07:20 46.78255 24.15846 35209 ft 454 kts 132°
2026-04-14 07:21 46.74059 24.22739 35217 ft 454 kts 132°
2026-04-14 07:21 46.69855 24.29626 35213 ft 455 kts 132°
2026-04-14 07:22 46.65637 24.36517 35212 ft 455 kts 132°
2026-04-14 07:22 46.61164 24.43808 35218 ft 456 kts 132°
2026-04-14 07:23 46.44375 24.71003 35232 ft 458 kts 133°
2026-04-14 07:23 46.40000 24.78039 35210 ft 460 kts 133°
2026-04-14 07:24 46.35712 24.84921 35215 ft 460 kts 133°
2026-04-14 07:24 46.31419 24.91792 35214 ft 461 kts 133°
2026-04-14 07:25 46.27116 24.98666 35218 ft 461 kts 133°
2026-04-14 07:25 46.22808 25.05528 35222 ft 461 kts 133°
2026-04-14 07:26 46.18493 25.12385 35219 ft 461 kts 133°
2026-04-14 07:26 46.14173 25.19233 35217 ft 461 kts 134°
2026-04-14 07:27 46.09853 25.26062 35218 ft 461 kts 133°
2026-04-14 07:27 46.05530 25.32879 35223 ft 461 kts 134°
2026-04-14 07:28 46.01202 25.39689 35224 ft 461 kts 134°
2026-04-14 07:28 45.96865 25.46494 35216 ft 461 kts 134°
2026-04-14 07:29 45.92544 25.53259 35224 ft 461 kts 134°
2026-04-14 07:29 45.88209 25.60027 35219 ft 462 kts 134°
2026-04-14 07:30 45.83855 25.66808 35217 ft 461 kts 134°
2026-04-14 07:30 45.79507 25.73565 35221 ft 461 kts 134°
2026-04-14 07:31 45.75157 25.80306 35229 ft 460 kts 134°
2026-04-14 07:31 45.70811 25.87025 35241 ft 460 kts 134°
2026-04-14 07:32 45.66457 25.93741 35246 ft 459 kts 134°
2026-04-14 07:32 45.62116 26.00420 35273 ft 458 kts 135°
2026-04-14 07:33 45.57777 26.07077 35291 ft 457 kts 135°
2026-04-14 07:33 45.53474 26.13666 35299 ft 457 kts 135°
2026-04-14 07:34 45.44750 26.26971 35317 ft 461 kts 134°
2026-04-14 07:35 45.40355 26.33652 35326 ft 464 kts 134°
2026-04-14 07:35 45.35922 26.40373 35318 ft 466 kts 134°
2026-04-14 07:36 45.31470 26.47107 35313 ft 467 kts 135°
2026-04-14 07:36 45.27014 26.53829 35320 ft 467 kts 135°
2026-04-14 07:37 45.22554 26.60542 35320 ft 467 kts 135°
2026-04-14 07:37 45.18845 26.66112 35322 ft 466 kts 135°
2026-04-14 07:38 45.14394 26.72781 35317 ft 465 kts 135°
2026-04-14 07:38 45.09950 26.79424 35319 ft 464 kts 135°
2026-04-14 07:39 45.05507 26.86048 35322 ft 463 kts 135°
2026-04-14 07:39 45.01072 26.92644 35322 ft 463 kts 135°
2026-04-14 07:40 44.96666 26.99182 35321 ft 462 kts 135°
2026-04-14 07:40 44.92223 27.05759 35323 ft 463 kts 135°
2026-04-14 07:41 44.87769 27.12336 35324 ft 464 kts 135°
2026-04-14 07:41 44.83304 27.18915 35324 ft 465 kts 135°
2026-04-14 07:42 44.78823 27.25501 35323 ft 466 kts 135°
2026-04-14 07:42 44.74324 27.32097 35321 ft 468 kts 136°
2026-04-14 07:43 44.69805 27.38707 35324 ft 469 kts 136°
2026-04-14 07:43 44.65269 27.45325 35324 ft 470 kts 136°
2026-04-14 07:44 44.60722 27.51945 35323 ft 472 kts 136°
2026-04-14 07:44 44.56188 27.58528 35322 ft 472 kts 136°
2026-04-14 07:45 44.51615 27.65154 35324 ft 473 kts 136°
2026-04-14 07:45 44.47033 27.71776 35319 ft 473 kts 136°
2026-04-14 07:46 44.42449 27.78385 35324 ft 473 kts 136°
2026-04-14 07:46 44.37860 27.84985 35322 ft 473 kts 136°
2026-04-14 07:47 44.33269 27.91573 35320 ft 473 kts 136°
2026-04-14 07:47 44.28676 27.98147 35325 ft 473 kts 136°
2026-04-14 07:48 44.24073 28.04721 35328 ft 474 kts 136°
2026-04-14 07:48 44.19463 28.11288 35327 ft 474 kts 136°
2026-04-14 07:49 44.14849 28.17846 35333 ft 474 kts 137°
2026-04-14 07:49 44.10264 28.24348 35331 ft 475 kts 137°
2026-04-14 07:50 44.05590 28.30959 35332 ft 475 kts 137°
2026-04-14 07:50 44.00981 28.37463 35326 ft 476 kts 137°
2026-04-14 07:51 43.96328 28.44014 35320 ft 476 kts 137°
2026-04-14 07:51 43.91663 28.50566 35332 ft 477 kts 137°
2026-04-14 07:52 43.86995 28.57108 35333 ft 478 kts 137°
2026-04-14 07:52 43.82313 28.63654 35328 ft 479 kts 137°
2026-04-14 07:53 43.77619 28.70202 35334 ft 479 kts 137°
2026-04-14 07:53 43.72915 28.76750 35333 ft 480 kts 137°
2026-04-14 07:54 43.68407 28.83580 35333 ft 483 kts 128°
2026-04-14 07:54 43.64471 28.91134 35339 ft 485 kts 127°
2026-04-14 07:55 43.60574 28.98735 35337 ft 486 kts 127°
2026-04-14 07:55 43.56631 29.06317 35359 ft 486 kts 128°
2026-04-14 07:56 43.52679 29.13833 35345 ft 487 kts 128°
2026-04-14 07:56 43.48686 29.21391 35341 ft 488 kts 128°
2026-04-14 07:57 43.44685 29.28944 35353 ft 489 kts 128°
2026-04-14 07:57 43.40669 29.36512 35343 ft 489 kts 128°
2026-04-14 07:58 43.36648 29.44070 35342 ft 490 kts 128°
2026-04-14 07:58 43.33084 29.50754 35342 ft 490 kts 128°
2026-04-14 07:59 43.29050 29.58301 35340 ft 491 kts 128°
2026-04-14 07:59 43.25001 29.65856 35353 ft 491 kts 128°
2026-04-14 08:00 43.20946 29.73403 35346 ft 491 kts 128°
2026-04-14 08:00 43.16884 29.80945 35352 ft 492 kts 128°
2026-04-14 08:01 43.12812 29.88484 35357 ft 492 kts 128°
2026-04-14 08:01 43.08735 29.96015 35346 ft 493 kts 128°
2026-04-14 08:02 43.04641 30.03558 35345 ft 494 kts 129°
2026-04-14 08:02 43.00540 30.11094 35352 ft 494 kts 129°
2026-04-14 08:03 42.96460 30.18573 35344 ft 495 kts 129°
2026-04-14 08:03 42.92341 30.26105 35349 ft 495 kts 129°
2026-04-14 08:04 42.88217 30.33627 35350 ft 495 kts 129°
2026-04-14 08:04 42.84088 30.41141 35350 ft 496 kts 129°
2026-04-14 08:05 42.79946 30.48660 35341 ft 496 kts 129°
2026-04-14 08:05 42.75933 30.56265 35317 ft 490 kts 120°
2026-04-14 08:06 42.73380 30.64801 35342 ft 490 kts 103°
2026-04-14 08:06 42.72319 30.73987 35357 ft 494 kts 96°
2026-04-14 08:07 42.71457 30.83310 35357 ft 499 kts 96°
2026-04-14 08:07 42.70542 30.92689 35354 ft 502 kts 96°
2026-04-14 08:08 42.69583 31.02053 35352 ft 504 kts 97°
2026-04-14 08:08 42.68595 31.11509 35350 ft 506 kts 97°
2026-04-14 08:09 42.67600 31.20972 35349 ft 506 kts 97°
2026-04-14 08:09 42.66601 31.30420 35350 ft 504 kts 97°
2026-04-14 08:10 42.65598 31.39835 35352 ft 502 kts 97°
2026-04-14 08:10 42.64593 31.49203 35352 ft 500 kts 97°
2026-04-14 08:11 42.63583 31.58535 35355 ft 498 kts 97°
2026-04-14 08:11 42.62568 31.67837 35352 ft 496 kts 97°
2026-04-14 08:12 42.61551 31.77099 35356 ft 495 kts 97°
2026-04-14 08:12 42.60528 31.86341 35354 ft 494 kts 97°
2026-04-14 08:13 42.59506 31.95514 35354 ft 495 kts 97°
2026-04-14 08:13 42.58446 32.04743 35359 ft 496 kts 98°
2026-04-14 08:14 42.57314 32.13982 35362 ft 496 kts 97°
2026-04-14 08:14 42.56273 32.23220 35362 ft 498 kts 96°
2026-04-14 08:15 42.55224 32.32502 35366 ft 499 kts 97°
2026-04-14 08:15 42.54148 32.41825 35359 ft 500 kts 97°
2026-04-14 08:16 42.53057 32.51153 35356 ft 501 kts 97°
2026-04-14 08:16 42.51955 32.60497 35352 ft 502 kts 97°
2026-04-14 08:17 42.50845 32.69848 35356 ft 503 kts 97°
2026-04-14 08:17 42.49728 32.79200 35356 ft 503 kts 97°
2026-04-14 08:18 42.48603 32.88545 35357 ft 502 kts 97°
2026-04-14 08:18 42.47472 32.97884 35357 ft 502 kts 97°
2026-04-14 08:19 42.46334 33.07215 35355 ft 502 kts 97°
2026-04-14 08:19 42.45192 33.16531 35358 ft 502 kts 97°
2026-04-14 08:20 42.44052 33.25854 35357 ft 502 kts 97°
2026-04-14 08:20 42.42915 33.35112 35357 ft 502 kts 97°
2026-04-14 08:21 42.41761 33.44419 35363 ft 502 kts 97°
2026-04-14 08:21 42.40578 33.53747 35362 ft 502 kts 97°
2026-04-14 08:22 42.39387 33.63060 35353 ft 503 kts 97°
2026-04-14 08:22 42.38189 33.72390 35357 ft 504 kts 97°
2026-04-14 08:23 42.36984 33.81729 35353 ft 504 kts 97°
2026-04-14 08:23 42.35767 33.91091 35358 ft 505 kts 97°
2026-04-14 08:24 42.34552 34.00399 35360 ft 506 kts 97°
2026-04-14 08:24 42.33322 34.09779 35361 ft 507 kts 97°
2026-04-14 08:25 42.32083 34.19172 35360 ft 508 kts 97°
2026-04-14 08:25 42.30833 34.28580 35357 ft 509 kts 97°
2026-04-14 08:26 42.29788 34.36408 35356 ft 510 kts 97°
2026-04-14 08:26 42.28513 34.45838 35355 ft 511 kts 97°
2026-04-14 08:27 42.27215 34.55275 35354 ft 511 kts 97°
2026-04-14 08:27 42.25910 34.64719 35355 ft 512 kts 97°
2026-04-14 08:28 42.24598 34.74180 35356 ft 512 kts 97°
2026-04-14 08:28 42.23278 34.83637 35352 ft 513 kts 97°
2026-04-14 08:29 42.21955 34.93101 35353 ft 513 kts 97°
2026-04-14 08:29 42.20634 35.02508 35354 ft 514 kts 97°
2026-04-14 08:30 42.19296 35.11980 35354 ft 515 kts 97°
2026-04-14 08:30 42.17947 35.21466 35352 ft 515 kts 97°
2026-04-14 08:31 42.16588 35.30962 35351 ft 516 kts 97°
2026-04-14 08:31 42.14536 35.45205 35352 ft 517 kts 97°
2026-04-14 08:32 42.13157 35.54731 35351 ft 517 kts 97°
2026-04-14 08:32 42.11774 35.64250 35354 ft 518 kts 97°
2026-04-14 08:33 42.10390 35.73711 35357 ft 519 kts 97°
2026-04-14 08:33 42.08985 35.83261 35357 ft 520 kts 97°
2026-04-14 08:34 42.07572 35.92802 35357 ft 520 kts 98°
2026-04-14 08:34 42.06149 36.02358 35352 ft 521 kts 98°
2026-04-14 08:35 42.04714 36.11934 35355 ft 522 kts 98°
2026-04-14 08:35 42.03271 36.21504 35351 ft 523 kts 98°
2026-04-14 08:36 42.01818 36.31082 35540 ft 519 kts 98°
2026-04-14 08:36 42.01105 36.35754 35791 ft 515 kts 98°
2026-04-14 08:36 42.00385 36.40460 36024 ft 511 kts 98°
2026-04-14 08:37 41.99669 36.45128 36264 ft 508 kts 98°
2026-04-14 08:37 41.98959 36.49751 36508 ft 504 kts 98°
2026-04-14 08:37 41.98250 36.54350 36751 ft 500 kts 98°
2026-04-14 08:37 41.97547 36.58904 37005 ft 496 kts 98°
2026-04-14 08:38 41.96846 36.63427 37250 ft 491 kts 98°
2026-04-14 08:38 41.96149 36.67920 37366 ft 491 kts 98°
2026-04-14 08:38 41.94745 36.76939 37357 ft 495 kts 98°
2026-04-14 08:39 41.93323 36.86013 37360 ft 498 kts 98°
2026-04-14 08:39 41.91893 36.95087 37357 ft 501 kts 98°
2026-04-14 08:40 41.90484 37.04280 37352 ft 503 kts 94°
2026-04-14 08:40 41.90123 37.13612 37360 ft 501 kts 86°
2026-04-14 08:41 41.90068 37.22991 37360 ft 504 kts 86°
2026-04-14 08:41 41.89981 37.32431 37358 ft 507 kts 86°
2026-04-14 08:42 41.89840 37.41925 37357 ft 510 kts 87°
2026-04-14 08:42 41.89672 37.51470 37356 ft 512 kts 87°
2026-04-14 08:43 41.89495 37.61039 37350 ft 513 kts 87°
2026-04-14 08:43 41.89312 37.70615 37347 ft 513 kts 87°
2026-04-14 08:44 41.89124 37.80172 37344 ft 511 kts 87°
2026-04-14 08:44 41.88928 37.89698 37340 ft 510 kts 88°
2026-04-14 08:45 41.88725 37.99185 37344 ft 508 kts 88°
2026-04-14 08:45 41.88517 38.08575 37348 ft 506 kts 88°
2026-04-14 08:46 41.88301 38.17986 37346 ft 504 kts 88°
2026-04-14 08:46 41.88078 38.27372 37346 ft 503 kts 88°
2026-04-14 08:47 41.87848 38.36750 37344 ft 503 kts 88°
2026-04-14 08:47 41.87610 38.46133 37344 ft 503 kts 88°
2026-04-14 08:48 41.87364 38.55520 37346 ft 504 kts 88°
2026-04-14 08:48 41.87109 38.64930 37350 ft 505 kts 88°
2026-04-14 08:49 41.86846 38.74374 37352 ft 507 kts 89°
2026-04-14 08:49 41.86574 38.83854 37347 ft 509 kts 89°
2026-04-14 08:50 41.86296 38.93294 37347 ft 511 kts 89°
2026-04-14 08:50 41.86005 39.02881 37346 ft 512 kts 89°
2026-04-14 08:51 41.85707 39.12432 37346 ft 513 kts 89°
2026-04-14 08:51 41.85402 39.21935 37345 ft 514 kts 89°
2026-04-14 08:52 41.85088 39.31506 37341 ft 514 kts 89°
2026-04-14 08:52 41.84766 39.41082 37340 ft 513 kts 89°
2026-04-14 08:53 41.84437 39.50641 37337 ft 512 kts 89°
2026-04-14 08:53 41.84108 39.60179 37335 ft 511 kts 89°
2026-04-14 08:54 41.83781 39.69696 37340 ft 510 kts 89°
2026-04-14 08:54 41.83447 39.79189 37337 ft 509 kts 89°
2026-04-14 08:55 41.83104 39.88653 37332 ft 508 kts 90°
2026-04-14 08:55 41.82757 39.98040 37334 ft 507 kts 90°
2026-04-14 08:56 41.82402 40.07467 37334 ft 506 kts 90°
2026-04-14 08:56 41.82033 40.16879 37331 ft 506 kts 90°
2026-04-14 08:57 41.81635 40.26304 37332 ft 506 kts 90°
2026-04-14 08:57 41.81228 40.35715 37331 ft 505 kts 90°
2026-04-14 08:58 41.80817 40.45134 37332 ft 505 kts 91°
2026-04-14 08:58 41.80400 40.54543 37325 ft 506 kts 91°
2026-04-14 08:59 41.79976 40.63947 37325 ft 506 kts 91°
2026-04-14 08:59 41.79534 40.73305 37324 ft 506 kts 91°
2026-04-14 09:00 41.79069 40.82712 37319 ft 506 kts 91°
2026-04-14 09:00 41.78595 40.92130 37329 ft 506 kts 91°
2026-04-14 09:01 41.78117 41.01553 37325 ft 507 kts 92°
2026-04-14 09:01 41.77632 41.10970 37320 ft 507 kts 92°
2026-04-14 09:02 41.77140 41.20387 37324 ft 507 kts 92°
2026-04-14 09:02 41.76639 41.29808 37317 ft 507 kts 92°
2026-04-14 09:03 41.76131 41.39222 37320 ft 507 kts 92°
2026-04-14 09:03 41.75615 41.48631 37317 ft 506 kts 92°
2026-04-14 09:04 41.75095 41.57976 37318 ft 506 kts 92°
2026-04-14 09:04 41.74565 41.67369 37320 ft 506 kts 92°
2026-04-14 09:05 41.74027 41.76762 37331 ft 505 kts 93°
2026-04-14 09:05 41.73482 41.86150 37327 ft 505 kts 93°
2026-04-14 09:06 41.72928 41.95553 37326 ft 506 kts 93°
2026-04-14 09:06 41.72368 42.04954 37292 ft 506 kts 94°
2026-04-14 09:07 41.71802 42.14348 37291 ft 507 kts 94°
2026-04-14 09:07 41.71237 42.23736 37303 ft 506 kts 94°
2026-04-14 09:08 41.70669 42.33075 37278 ft 506 kts 94°
2026-04-14 09:08 41.70089 42.42472 37290 ft 506 kts 94°
2026-04-14 09:09 41.69502 42.51846 37286 ft 505 kts 94°
2026-04-14 09:09 41.68908 42.61218 37266 ft 505 kts 94°
2026-04-14 09:10 41.68309 42.70534 37262 ft 504 kts 94°
2026-04-14 09:10 41.67701 42.79893 37259 ft 505 kts 94°
2026-04-14 09:11 41.67084 42.89243 37247 ft 505 kts 95°
2026-04-14 09:11 41.66440 42.98601 37246 ft 505 kts 95°
2026-04-14 09:12 41.65786 43.07956 37247 ft 505 kts 95°
2026-04-14 09:12 41.65126 43.17320 37254 ft 506 kts 95°
2026-04-14 09:13 41.64460 43.26692 37242 ft 507 kts 95°
2026-04-14 09:13 41.63900 43.34496 37254 ft 507 kts 95°
2026-04-14 09:14 41.63107 43.45410 37261 ft 507 kts 95°
2026-04-14 09:14 41.62530 43.53272 37258 ft 507 kts 95°
2026-04-14 09:15 41.61837 43.62660 37260 ft 507 kts 95°
2026-04-14 09:15 41.61138 43.72044 37256 ft 507 kts 96°
2026-04-14 09:16 41.60432 43.81419 37256 ft 507 kts 96°
2026-04-14 09:16 41.59724 43.90718 37243 ft 506 kts 96°
2026-04-14 09:17 41.59006 44.00055 37235 ft 506 kts 96°
2026-04-14 09:17 41.58279 44.09399 37212 ft 505 kts 96°
2026-04-14 09:18 41.57547 44.18734 37214 ft 505 kts 96°
2026-04-14 09:18 41.56180 44.27907 37205 ft 503 kts 109°
2026-04-14 09:19 41.53935 44.36773 37180 ft 503 kts 110°
2026-04-14 09:19 41.51660 44.45606 37161 ft 503 kts 110°
2026-04-14 09:20 41.49452 44.54392 37164 ft 503 kts 110°
2026-04-14 09:20 41.47249 44.63243 37167 ft 502 kts 110°
2026-04-14 09:21 41.45043 44.72081 37170 ft 502 kts 110°
2026-04-14 09:21 41.42812 44.80972 37177 ft 503 kts 110°
2026-04-14 09:22 41.40601 44.89745 37184 ft 503 kts 110°
2026-04-14 09:22 41.38368 44.98576 37181 ft 503 kts 110°
2026-04-14 09:23 41.36129 45.07399 37186 ft 503 kts 110°
2026-04-14 09:23 41.33876 45.16227 37180 ft 503 kts 110°
2026-04-14 09:24 41.31614 45.25046 37174 ft 503 kts 110°
2026-04-14 09:24 41.29348 45.33856 37186 ft 503 kts 110°
2026-04-14 09:25 41.27077 45.42661 37176 ft 503 kts 110°
2026-04-14 09:25 41.24800 45.51456 37171 ft 503 kts 110°
2026-04-14 09:26 41.22519 45.60236 37177 ft 503 kts 110°
2026-04-14 09:26 41.20225 45.69016 37177 ft 502 kts 111°
2026-04-14 09:27 41.17910 45.77753 37178 ft 502 kts 111°
2026-04-14 09:27 41.15599 45.86435 37177 ft 501 kts 111°
2026-04-14 09:28 41.13277 45.95144 37180 ft 500 kts 111°
2026-04-14 09:28 41.10956 46.03826 37176 ft 499 kts 111°
2026-04-14 09:29 41.08632 46.12488 37185 ft 498 kts 111°
2026-04-14 09:29 41.06305 46.21133 37186 ft 498 kts 111°
2026-04-14 09:30 41.03975 46.29763 37191 ft 497 kts 111°
2026-04-14 09:30 41.01665 46.38397 37190 ft 498 kts 111°
2026-04-14 09:31 40.99363 46.47045 37191 ft 498 kts 111°
2026-04-14 09:31 40.97064 46.55642 37189 ft 498 kts 111°
2026-04-14 09:32 40.94741 46.64283 37196 ft 498 kts 111°
2026-04-14 09:33 40.91251 46.77215 37199 ft 498 kts 111°
2026-04-14 09:33 40.89478 46.86054 37196 ft 499 kts 96°
2026-04-14 09:34 40.88860 46.95196 37196 ft 500 kts 95°
2026-04-14 09:34 40.88289 47.04296 37195 ft 500 kts 95°
2026-04-14 09:35 40.87644 47.13447 37191 ft 500 kts 96°
2026-04-14 09:35 40.86962 47.22601 37181 ft 500 kts 96°
2026-04-14 09:36 40.86274 47.31727 37182 ft 499 kts 96°
2026-04-14 09:36 40.85583 47.40854 37193 ft 499 kts 96°
2026-04-14 09:37 40.84888 47.49961 37177 ft 498 kts 96°
2026-04-14 09:37 40.84262 47.59067 37182 ft 497 kts 95°
2026-04-14 09:38 40.83723 47.68180 37190 ft 496 kts 95°
2026-04-14 09:38 40.83177 47.77272 37177 ft 496 kts 95°
2026-04-14 09:39 40.82614 47.86285 37189 ft 495 kts 95°
2026-04-14 09:39 40.82033 47.95341 37179 ft 494 kts 95°
2026-04-14 09:40 40.81446 48.04375 37173 ft 493 kts 95°
2026-04-14 09:40 40.80854 48.13393 37181 ft 493 kts 96°
2026-04-14 09:41 40.80255 48.22403 37172 ft 492 kts 96°
2026-04-14 09:41 40.79650 48.31405 37163 ft 492 kts 96°
2026-04-14 09:42 40.79039 48.40392 37170 ft 491 kts 96°
2026-04-14 09:42 40.78421 48.49369 37176 ft 491 kts 96°
2026-04-14 09:43 40.77798 48.58332 37185 ft 490 kts 96°
2026-04-14 09:43 40.77172 48.67224 37169 ft 490 kts 96°
2026-04-14 09:44 40.76535 48.76170 37161 ft 490 kts 96°
2026-04-14 09:44 40.75892 48.85114 37168 ft 489 kts 96°
2026-04-14 09:45 40.75243 48.94046 37163 ft 489 kts 96°
2026-04-14 09:45 40.74585 49.02990 37160 ft 490 kts 96°
2026-04-14 09:46 40.73921 49.11935 37174 ft 490 kts 96°
2026-04-14 09:46 40.73251 49.20887 37167 ft 491 kts 97°
2026-04-14 09:47 40.72455 49.29812 37176 ft 490 kts 100°
2026-04-14 09:47 40.71343 49.38675 37175 ft 490 kts 101°
2026-04-14 09:48 40.70263 49.47557 37176 ft 490 kts 100°
2026-04-14 09:48 40.69214 49.56440 37176 ft 490 kts 100°
2026-04-14 09:49 40.68145 49.65254 37181 ft 491 kts 101°
2026-04-14 09:49 40.67056 49.74146 37182 ft 491 kts 101°
2026-04-14 09:50 40.65964 49.83032 37180 ft 491 kts 101°
2026-04-14 09:50 40.64871 49.91882 37187 ft 492 kts 101°
2026-04-14 09:51 40.63766 50.00773 37181 ft 492 kts 101°
2026-04-14 09:51 40.62653 50.09668 37186 ft 492 kts 101°
2026-04-14 09:52 40.61534 50.18554 37183 ft 492 kts 101°
2026-04-14 09:52 40.60407 50.27447 37183 ft 492 kts 101°
2026-04-14 09:53 40.59273 50.36341 37182 ft 493 kts 101°
2026-04-14 09:53 40.58132 50.45231 37183 ft 493 kts 101°
2026-04-14 09:54 40.56985 50.54115 37179 ft 493 kts 101°
2026-04-14 09:54 40.55830 50.63000 37185 ft 492 kts 101°
2026-04-14 09:55 40.54677 50.71819 37183 ft 492 kts 101°
2026-04-14 09:55 40.53511 50.80684 37183 ft 492 kts 101°
2026-04-14 09:56 40.52340 50.89542 37182 ft 492 kts 101°
2026-04-14 09:56 40.51332 50.98434 37183 ft 492 kts 98°
2026-04-14 09:57 40.50576 51.07368 37184 ft 492 kts 97°
2026-04-14 09:57 40.49812 51.16299 37184 ft 492 kts 98°
2026-04-14 09:58 40.49003 51.25214 37174 ft 491 kts 98°
2026-04-14 09:58 40.48176 51.34118 37175 ft 491 kts 98°
2026-04-14 09:59 40.47347 51.43008 37171 ft 491 kts 98°
2026-04-14 09:59 40.46433 51.51882 37164 ft 489 kts 103°
2026-04-14 10:00 40.44890 51.60566 37165 ft 488 kts 107°
2026-04-14 10:00 40.43208 51.69202 37171 ft 489 kts 106°
2026-04-14 10:01 40.41566 51.77829 37166 ft 491 kts 105°
2026-04-14 10:01 40.39944 51.86544 37161 ft 492 kts 105°
2026-04-14 10:02 40.38595 51.93814 37157 ft 493 kts 105°
2026-04-14 10:02 40.36965 52.02556 37157 ft 493 kts 106°
2026-04-14 10:03 40.35330 52.11274 37152 ft 492 kts 106°
2026-04-14 10:03 40.33691 52.19966 37153 ft 490 kts 106°
2026-04-14 10:04 40.32050 52.28630 37153 ft 489 kts 106°
2026-04-14 10:04 40.30409 52.37253 37149 ft 487 kts 106°
2026-04-14 10:05 40.28779 52.45788 37149 ft 485 kts 106°
2026-04-14 10:05 40.27130 52.54390 37151 ft 483 kts 106°
2026-04-14 10:06 40.25501 52.62853 37152 ft 482 kts 106°
2026-04-14 10:06 40.23866 52.71357 37154 ft 481 kts 107°
2026-04-14 10:07 40.22228 52.79849 37158 ft 481 kts 107°
2026-04-14 10:07 40.20585 52.88336 37152 ft 482 kts 107°
2026-04-14 10:08 40.18930 52.96840 37167 ft 482 kts 107°
2026-04-14 10:08 40.17269 53.05347 37161 ft 483 kts 107°
2026-04-14 10:09 40.15595 53.13874 37148 ft 485 kts 107°
2026-04-14 10:09 40.13910 53.22429 37147 ft 486 kts 107°
2026-04-14 10:10 40.12228 53.30929 37137 ft 486 kts 107°
2026-04-14 10:10 40.10531 53.39473 37133 ft 485 kts 107°
2026-04-14 10:11 40.08832 53.47992 37121 ft 484 kts 107°
2026-04-14 10:11 40.07130 53.56489 37119 ft 482 kts 108°
2026-04-14 10:12 40.05428 53.64948 37128 ft 481 kts 108°
2026-04-14 10:12 40.03721 53.73399 37123 ft 481 kts 108°
2026-04-14 10:13 40.02011 53.81827 37113 ft 480 kts 108°
2026-04-14 10:13 40.00297 53.90244 37113 ft 480 kts 108°
2026-04-14 10:14 39.98577 53.98654 37115 ft 479 kts 108°
2026-04-14 10:14 39.96863 54.07007 37108 ft 479 kts 108°
2026-04-14 10:15 39.95133 54.15399 37108 ft 479 kts 108°
2026-04-14 10:15 39.93398 54.23785 37123 ft 479 kts 108°
2026-04-14 10:16 39.91651 54.32194 37098 ft 480 kts 108°
2026-04-14 10:16 39.89901 54.40593 37099 ft 480 kts 109°
2026-04-14 10:17 39.88137 54.48984 37095 ft 480 kts 109°
2026-04-14 10:17 39.86356 54.57307 37090 ft 480 kts 109°
2026-04-14 10:18 39.83661 54.69876 37087 ft 481 kts 109°
2026-04-14 10:18 39.82333 54.78412 37075 ft 486 kts 95°
2026-04-14 10:19 39.82555 54.87237 37072 ft 488 kts 89°
2026-04-14 10:19 39.82934 54.96059 37074 ft 488 kts 90°
2026-04-14 10:20 39.83213 55.04885 37066 ft 488 kts 90°
2026-04-14 10:20 39.83484 55.13713 37068 ft 488 kts 90°
2026-04-14 10:21 39.83767 55.22490 37062 ft 488 kts 90°
2026-04-14 10:21 39.84045 55.31313 37062 ft 488 kts 90°
2026-04-14 10:22 39.84314 55.40137 37060 ft 488 kts 90°
2026-04-14 10:22 39.84574 55.48954 37052 ft 487 kts 90°
2026-04-14 10:23 39.84827 55.57752 37048 ft 486 kts 90°
2026-04-14 10:23 39.85073 55.66536 37051 ft 485 kts 90°
2026-04-14 10:24 39.85313 55.75315 37043 ft 484 kts 91°
2026-04-14 10:24 39.85545 55.84079 37050 ft 484 kts 91°
2026-04-14 10:25 39.85769 55.92768 37046 ft 483 kts 91°
2026-04-14 10:25 39.85987 56.01500 37038 ft 483 kts 91°
2026-04-14 10:26 39.86199 56.10232 37035 ft 482 kts 91°
2026-04-14 10:26 39.86405 56.18952 37038 ft 482 kts 91°
2026-04-14 10:27 39.86606 56.27676 37031 ft 481 kts 91°
2026-04-14 10:27 39.86806 56.36380 37034 ft 481 kts 91°
2026-04-14 10:28 39.87002 56.45094 37030 ft 481 kts 91°
2026-04-14 10:28 39.87190 56.53811 37032 ft 481 kts 91°
2026-04-14 10:29 39.87371 56.62523 37023 ft 482 kts 91°
2026-04-14 10:29 39.87460 56.66884 37218 ft 483 kts 91°
2026-04-14 10:29 39.87546 56.71271 37126 ft 487 kts 91°
2026-04-14 10:30 39.87716 56.80143 37036 ft 493 kts 91°
2026-04-14 10:30 39.87881 56.89034 37027 ft 496 kts 91°
2026-04-14 10:31 39.88042 56.98027 37020 ft 497 kts 91°
2026-04-14 10:31 39.88196 57.07034 37016 ft 498 kts 91°
2026-04-14 10:32 39.88343 57.16048 37019 ft 497 kts 92°
2026-04-14 10:32 39.88482 57.25026 37012 ft 496 kts 92°
2026-04-14 10:33 39.88614 57.33996 37011 ft 494 kts 92°
2026-04-14 10:33 39.88738 57.42924 37013 ft 492 kts 92°
2026-04-14 10:34 39.88910 57.56226 37019 ft 489 kts 92°
2026-04-14 10:35 39.89016 57.65058 37016 ft 487 kts 92°
2026-04-14 10:35 39.89115 57.73860 37020 ft 486 kts 92°
2026-04-14 10:36 39.89207 57.82653 37025 ft 486 kts 92°
2026-04-14 10:36 39.89293 57.91453 37033 ft 486 kts 93°
2026-04-14 10:37 39.89371 58.00202 37032 ft 487 kts 93°
2026-04-14 10:37 39.89444 58.09031 37038 ft 488 kts 93°
2026-04-14 10:38 39.89513 58.17890 37039 ft 489 kts 93°
2026-04-14 10:38 39.89604 58.26763 37037 ft 491 kts 93°
2026-04-14 10:39 39.89702 58.35665 37038 ft 492 kts 93°
2026-04-14 10:39 39.89790 58.44584 37040 ft 492 kts 93°
2026-04-14 10:40 39.89869 58.53508 37041 ft 493 kts 93°
2026-04-14 10:40 39.89940 58.62431 37042 ft 493 kts 93°
2026-04-14 10:41 39.90004 58.71304 37045 ft 493 kts 94°
2026-04-14 10:41 39.90062 58.80222 37039 ft 492 kts 94°
2026-04-14 10:42 39.90113 58.89124 37040 ft 492 kts 94°
2026-04-14 10:42 39.90157 58.98035 37040 ft 491 kts 94°
2026-04-14 10:43 39.90195 59.06923 37049 ft 491 kts 94°
2026-04-14 10:43 39.90212 59.15810 37049 ft 491 kts 94°
2026-04-14 10:44 39.90209 59.24702 37041 ft 491 kts 94°
2026-04-14 10:44 39.90203 59.33585 37038 ft 491 kts 94°
2026-04-14 10:45 39.90184 59.42473 37036 ft 491 kts 94°
2026-04-14 10:45 39.90140 59.51310 37033 ft 491 kts 95°
2026-04-14 10:46 39.90089 59.60210 37025 ft 492 kts 94°
2026-04-14 10:46 39.90034 59.69126 37022 ft 492 kts 94°
2026-04-14 10:47 39.89973 59.78052 37011 ft 493 kts 94°
2026-04-14 10:47 39.89905 59.86968 37004 ft 493 kts 95°
2026-04-14 10:48 39.89831 59.95916 36996 ft 494 kts 95°
2026-04-14 10:48 39.89749 60.04865 36988 ft 494 kts 95°
2026-04-14 10:49 39.89661 60.13810 36981 ft 494 kts 95°
2026-04-14 10:49 39.89567 60.22712 36974 ft 494 kts 95°
2026-04-14 10:50 39.89056 60.31580 36958 ft 486 kts 108°
2026-04-14 10:50 39.87404 60.40077 36958 ft 484 kts 110°
2026-04-14 10:51 39.85965 60.47107 36949 ft 484 kts 110°
2026-04-14 10:51 39.84261 60.55590 36947 ft 484 kts 109°
2026-04-14 10:52 39.82586 60.64085 36943 ft 484 kts 109°
2026-04-14 10:52 39.80916 60.72592 36933 ft 485 kts 109°
2026-04-14 10:53 39.79242 60.81087 36927 ft 486 kts 109°
2026-04-14 10:53 39.77567 60.89543 36923 ft 487 kts 109°
2026-04-14 10:54 39.75869 60.98069 36915 ft 488 kts 109°
2026-04-14 10:54 39.74161 61.06612 36907 ft 489 kts 109°
2026-04-14 10:55 39.72445 61.15164 36901 ft 490 kts 109°
2026-04-14 10:55 39.70718 61.23731 36892 ft 491 kts 109°
2026-04-14 10:56 39.68980 61.32314 36875 ft 492 kts 109°
2026-04-14 10:56 39.67233 61.40912 36868 ft 493 kts 109°
2026-04-14 10:57 39.65477 61.49517 36864 ft 493 kts 109°
2026-04-14 10:57 39.63713 61.58122 36857 ft 494 kts 109°
2026-04-14 10:58 39.61941 61.66737 36851 ft 494 kts 109°
2026-04-14 10:58 39.60171 61.75301 36841 ft 495 kts 109°
2026-04-14 10:59 39.58383 61.83921 36833 ft 495 kts 109°
2026-04-14 10:59 39.56588 61.92539 36831 ft 495 kts 109°
2026-04-14 11:00 39.54789 62.01141 36846 ft 494 kts 109°
2026-04-14 11:00 39.52984 62.09736 36836 ft 494 kts 109°
2026-04-14 11:01 39.51177 62.18306 36835 ft 495 kts 110°
2026-04-14 11:01 39.49353 62.26920 36828 ft 495 kts 110°
2026-04-14 11:02 39.47521 62.35537 36828 ft 496 kts 110°
2026-04-14 11:02 39.45694 62.44102 36820 ft 497 kts 110°
2026-04-14 11:03 39.43848 62.52719 36820 ft 497 kts 110°
2026-04-14 11:03 39.41992 62.61346 36816 ft 498 kts 110°
2026-04-14 11:04 39.40129 62.69973 36811 ft 498 kts 110°
2026-04-14 11:04 39.38259 62.78600 36810 ft 498 kts 110°
2026-04-14 11:05 39.36381 62.87229 36813 ft 498 kts 109°
2026-04-14 11:05 39.34499 62.95845 36813 ft 498 kts 109°
2026-04-14 11:06 39.32609 63.04459 36808 ft 498 kts 110°
2026-04-14 11:06 39.30725 63.13015 36812 ft 498 kts 110°
2026-04-14 11:07 39.28824 63.21612 36810 ft 498 kts 109°
2026-04-14 11:07 39.26913 63.30224 36823 ft 498 kts 110°
2026-04-14 11:08 39.24999 63.38815 36834 ft 498 kts 110°
2026-04-14 11:08 39.23080 63.47398 36841 ft 498 kts 110°
2026-04-14 11:09 39.21154 63.55977 36851 ft 498 kts 110°
2026-04-14 11:09 39.19225 63.64537 36850 ft 497 kts 110°
2026-04-14 11:10 39.16319 63.77375 36845 ft 497 kts 110°
2026-04-14 11:10 39.14377 63.85908 36825 ft 497 kts 110°
2026-04-14 11:11 39.12427 63.94450 36828 ft 497 kts 110°
2026-04-14 11:11 39.10485 64.02928 36832 ft 497 kts 110°
2026-04-14 11:12 39.08523 64.11463 36833 ft 497 kts 110°
2026-04-14 11:12 39.06606 64.20016 36837 ft 498 kts 108°
2026-04-14 11:13 39.04814 64.28624 36837 ft 498 kts 108°
2026-04-14 11:13 39.03024 64.37251 36842 ft 499 kts 108°
2026-04-14 11:14 39.01210 64.45860 36849 ft 499 kts 108°
2026-04-14 11:14 38.99375 64.54485 36837 ft 500 kts 108°
2026-04-14 11:15 38.97533 64.63101 36841 ft 500 kts 109°
2026-04-14 11:15 38.95693 64.71679 36854 ft 500 kts 108°
2026-04-14 11:16 38.93839 64.80295 36846 ft 501 kts 109°
2026-04-14 11:16 38.91975 64.88922 36849 ft 501 kts 109°
2026-04-14 11:17 38.90104 64.97552 36848 ft 501 kts 109°
2026-04-14 11:17 38.88230 65.06160 36852 ft 501 kts 109°
2026-04-14 11:18 38.87284 65.10484 36697 ft 503 kts 109°
2026-04-14 11:18 38.86335 65.14804 36536 ft 501 kts 109°
2026-04-14 11:18 38.85390 65.19096 36379 ft 500 kts 109°
2026-04-14 11:18 38.84444 65.23386 36228 ft 500 kts 109°
2026-04-14 11:19 38.83495 65.27678 36072 ft 500 kts 109°
2026-04-14 11:19 38.82546 65.31966 35926 ft 500 kts 109°
2026-04-14 11:19 38.81595 65.36259 35776 ft 500 kts 109°
2026-04-14 11:19 38.80643 65.40545 35631 ft 501 kts 109°
2026-04-14 11:20 38.79687 65.44841 35483 ft 501 kts 109°
2026-04-14 11:20 38.78731 65.49130 35336 ft 501 kts 109°
2026-04-14 11:20 38.77773 65.53423 35191 ft 501 kts 109°
2026-04-14 11:20 38.76812 65.57720 35046 ft 501 kts 109°
2026-04-14 11:21 38.75846 65.62026 34927 ft 503 kts 109°
2026-04-14 11:21 38.74878 65.66335 34880 ft 504 kts 109°
2026-04-14 11:21 38.72956 65.74876 34864 ft 500 kts 109°
2026-04-14 11:22 38.71022 65.83431 34875 ft 500 kts 109°
2026-04-14 11:22 38.69077 65.91998 34879 ft 501 kts 109°
2026-04-14 11:23 38.67124 66.00574 34881 ft 502 kts 109°
2026-04-14 11:23 38.65158 66.09178 34880 ft 503 kts 109°
2026-04-14 11:24 38.63189 66.17763 34883 ft 503 kts 109°
2026-04-14 11:24 38.61592 66.26483 34881 ft 506 kts 96°
2026-04-14 11:25 38.61285 66.35459 34906 ft 506 kts 92°
2026-04-14 11:25 38.61073 66.44390 34906 ft 505 kts 93°
2026-04-14 11:26 38.60784 66.53364 34683 ft 506 kts 94°
2026-04-14 11:26 38.60620 66.57850 34450 ft 502 kts 94°
2026-04-14 11:26 38.60454 66.62301 34217 ft 500 kts 94°
2026-04-14 11:27 38.60288 66.66747 33994 ft 501 kts 94°
2026-04-14 11:27 38.60121 66.71206 33748 ft 503 kts 94°
2026-04-14 11:27 38.59954 66.75673 33493 ft 503 kts 94°
2026-04-14 11:27 38.59785 66.80147 33236 ft 504 kts 94°
2026-04-14 11:28 38.59616 66.84616 32976 ft 503 kts 94°
2026-04-14 11:28 38.59449 66.89028 32728 ft 503 kts 95°
2026-04-14 11:28 38.59278 66.93484 32475 ft 502 kts 95°
2026-04-14 11:28 38.59106 66.97927 32230 ft 501 kts 95°
2026-04-14 11:29 38.58933 67.02371 31982 ft 500 kts 95°
2026-04-14 11:29 38.58758 67.06803 31743 ft 498 kts 95°
2026-04-14 11:29 38.58582 67.11220 31502 ft 497 kts 95°
2026-04-14 11:29 38.58404 67.15645 30958 ft 502 kts 95°
2026-04-14 11:30 38.58221 67.20138 30089 ft 508 kts 95°
2026-04-14 11:30 38.58036 67.24645 29127 ft 509 kts 95°
2026-04-14 11:30 38.57851 67.29171 28192 ft 509 kts 95°
2026-04-14 11:30 38.57665 67.33684 27259 ft 509 kts 95°
2026-04-14 11:31 38.57473 67.38205 26391 ft 509 kts 95°
2026-04-14 11:31 38.57281 67.42705 25514 ft 507 kts 95°
2026-04-14 11:31 38.57089 67.47193 24675 ft 505 kts 94°
2026-04-14 11:31 38.56898 67.51670 23760 ft 505 kts 94°
2026-04-14 11:32 38.56704 67.56141 22928 ft 501 kts 94°
2026-04-14 11:32 38.56512 67.60514 22803 ft 482 kts 94°
2026-04-14 11:32 38.56325 67.64733 22426 ft 471 kts 94°
2026-04-14 11:32 38.56141 67.68867 21754 ft 466 kts 94°
2026-04-14 11:33 38.55954 67.73012 20931 ft 464 kts 95°
2026-04-14 11:33 38.55766 67.77104 20336 ft 459 kts 94°
2026-04-14 11:33 38.55573 67.81136 19854 ft 450 kts 94°
2026-04-14 11:34 38.55188 67.89042 18648 ft 442 kts 94°
2026-04-14 11:34 38.54997 67.92942 18056 ft 438 kts 94°
2026-04-14 11:34 38.54808 67.96800 17453 ft 432 kts 94°
2026-04-14 11:34 38.54620 68.00609 16840 ft 428 kts 94°
2026-04-14 11:35 38.54218 68.04344 16229 ft 422 kts 106°
2026-04-14 11:35 38.53153 68.07812 15632 ft 417 kts 119°
2026-04-14 11:35 38.51579 68.10823 15055 ft 411 kts 133°
2026-04-14 11:35 38.49605 68.13429 14493 ft 406 kts 136°
2026-04-14 11:36 38.47625 68.15973 13918 ft 403 kts 136°
2026-04-14 11:36 38.45679 68.18528 13303 ft 400 kts 135°
2026-04-14 11:36 38.43761 68.21082 12691 ft 397 kts 135°
2026-04-14 11:36 38.42008 68.23771 12152 ft 394 kts 122°
2026-04-14 11:37 38.41028 68.27014 11635 ft 393 kts 101°
2026-04-14 11:37 38.40884 68.30470 11139 ft 391 kts 84°
2026-04-14 11:37 38.41512 68.33788 10636 ft 378 kts 72°
2026-04-14 11:37 38.42332 68.36918 10126 ft 366 kts 71°
2026-04-14 11:38 38.43111 68.39959 9636 ft 358 kts 72°
2026-04-14 11:38 38.43613 68.41965 9276 ft 357 kts 72°
2026-04-14 11:38 38.44530 68.44889 8877 ft 352 kts 58°
2026-04-14 11:38 38.46134 68.47144 8801 ft 337 kts 36°
2026-04-14 11:39 38.48147 68.48518 8783 ft 321 kts 19°
2026-04-14 11:39 38.50275 68.49070 8787 ft 305 kts
2026-04-14 11:39 38.52220 68.49898 8776 ft 291 kts 36°
2026-04-14 11:39 38.53473 68.51794 8783 ft 277 kts 65°
2026-04-14 11:40 38.54112 68.54085 8533 ft 278 kts 79°
2026-04-14 11:40 38.54303 68.56582 8050 ft 285 kts 87°
2026-04-14 11:40 38.54380 68.59138 7574 ft 291 kts 89°
2026-04-14 11:40 38.54394 68.61747 7080 ft 296 kts 90°
2026-04-14 11:41 38.54382 68.64400 6618 ft 300 kts 91°
2026-04-14 11:41 38.54370 68.67053 6150 ft 305 kts 90°
2026-04-14 11:41 38.54367 68.69793 5469 ft 311 kts 90°
2026-04-14 11:41 38.54367 68.72510 4778 ft 297 kts 90°
2026-04-14 11:42 38.54369 68.75073 4025 ft 280 kts 89°
2026-04-14 11:42 38.54370 68.77507 3280 ft 268 kts 90°
2026-04-14 11:42 38.54373 68.79789 2872 ft 238 kts 90°
2026-04-14 11:42 38.54363 68.81733 2572 ft 167 kts 90°
2026-04-14 11:43 38.54358 68.82643 2562 ft 64 kts 90°
2026-04-14 11:43 38.54365 68.83155 2557 ft 36 kts 90°
2026-04-14 11:43 38.54400 68.83287 2557 ft 8 kts 31°
2026-04-14 11:43 38.54413 68.83292 2557 ft 0 kts
2026-04-14 11:44 38.54508 68.83290 2556 ft 23 kts 359°
2026-04-14 11:44 38.54621 68.83290 2556 ft 11 kts
2026-04-14 11:44 38.54676 68.83274 2556 ft 0 kts 322°
2026-04-14 11:44 38.54684 68.83261 2556 ft 0 kts 301°
2026-04-14 11:45 38.54684 68.83257 2556 ft 2 kts 284°
2026-04-14 11:45 38.54689 68.83128 2557 ft 18 kts 270°
2026-04-14 11:45 38.54689 68.82988 2559 ft 14 kts 270°
2026-04-14 11:45 38.54690 68.82878 2560 ft 11 kts 270°
2026-04-14 11:46 38.54690 68.82793 2561 ft 8 kts 270°
2026-04-14 11:46 38.54690 68.82729 2561 ft 6 kts 270°
2026-04-14 11:46 38.54690 68.82675 2562 ft 7 kts 270°
2026-04-14 11:46 38.54690 68.82583 2563 ft 11 kts 270°
2026-04-14 11:47 38.54690 68.82490 2564 ft 9 kts 270°
2026-04-14 11:47 38.54691 68.82417 2565 ft 7 kts 270°
2026-04-14 11:47 38.54691 68.82366 2565 ft 5 kts 271°
2026-04-14 11:47 38.54692 68.82318 2566 ft 6 kts 270°
2026-04-14 11:48 38.54692 68.82242 2566 ft 11 kts 271°
2026-04-14 11:48 38.54693 68.82122 2568 ft 16 kts 270°
2026-04-14 11:48 38.54693 68.81968 2569 ft 18 kts 270°
2026-04-14 11:48 38.54693 68.81820 2571 ft 15 kts 270°
2026-04-14 11:49 38.54693 68.81700 2572 ft 11 kts 270°
2026-04-14 11:49 38.54701 68.81653 2572 ft 0 kts 302°
2026-04-14 11:49 38.54706 68.81650 2568 ft 3 kts 325°
2026-04-14 11:49 38.54717 68.81646 2572 ft 2 kts 349°
2026-04-14 11:50 38.54726 68.81648 2570 ft 4 kts 12°
2026-04-14 11:50 38.54737 68.81657 2572 ft 1 kts 46°
2026-04-14 11:50 38.54739 68.81668 2572 ft 2 kts 75°
2026-04-14 11:51 38.54741 68.81700 2572 ft 0 kts 90°